CST,Max TemperatureF,Mean TemperatureF,Min TemperatureF,Max Dew PointF,MeanDew PointF,Min DewpointF,Max Humidity, Mean Humidity, Min Humidity, Max Sea Level PressureIn, Mean Sea Level PressureIn, Min Sea Level PressureIn, Max VisibilityMiles, Mean VisibilityMiles, Min VisibilityMiles, Max Wind SpeedMPH, Mean Wind SpeedMPH, Max Gust SpeedMPH,PrecipitationIn, CloudCover, Events, WindDirDegrees
2011-11-1,77,62,50,47,44,41,71,49,36,30.04,29.97,29.89,10,10,10,21,9,34,0.00,0,,173
2011-11-2,66,52,39,59,48,37,97,77,47,30.11,29.96,29.88,10,6,1,23,11,34,0.43,6,Rain,316
2011-11-3,55,42,30,34,30,26,85,65,34,30.30,30.22,30.11,10,10,8,26,18,37,0.05,3,Rain,330
2011-11-4,62,44,28,39,33,25,89,66,42,30.29,30.20,30.09,10,10,10,9,2,16,0.00,0,,148
2011-11-5,63,54,45,44,41,38,90,68,46,30.08,29.98,29.82,10,10,6,15,8,28,0.00,2,,160
2011-11-6,73,64,54,59,53,44,90,70,46,30.03,29.93,29.83,10,9,6,18,12,25,0.00,4,,178
2011-11-7,66,62,57,63,58,55,94,90,82,30.08,29.99,29.88,10,5,1,18,4,28,1.81,8,Rain-Thunderstorm,105
2011-11-8,64,54,42,59,57,46,100,90,77,29.98,29.85,29.75,10,7,2,22,5,30,0.95,8,Rain-Thunderstorm,188
2011-11-9,55,44,34,37,32,28,87,69,35,30.39,30.25,30.00,10,10,10,24,14,36,0.00,2,,323
2011-11-10,57,42,28,34,31,26,92,66,32,30.40,30.28,30.09,10,10,10,8,2,,0.00,0,,303
2011-11-11,68,52,37,36,32,30,83,47,24,30.08,29.93,29.86,10,10,10,18,8,25,0.00,0,,190
2011-11-12,66,57,48,50,37,30,69,46,33,29.83,29.67,29.56,10,10,10,29,14,38,0.00,0,,184
2011-11-13,69,61,53,50,43,36,72,54,30,29.62,29.57,29.50,10,10,10,14,8,22,0.00,0,,202
2011-11-14,69,58,44,46,39,34,79,47,34,29.79,29.71,29.53,10,10,10,15,8,25,0.00,0,,235
2011-11-15,69,53,37,50,41,29,93,77,42,29.94,29.80,29.73,10,7,1,14,2,21,0.00,3,,11
2011-11-16,46,38,28,32,26,14,89,66,29,30.43,30.23,29.95,10,10,2,16,8,23,0.00,3,Snow,11
2011-11-17,50,36,21,30,23,17,89,62,33,30.47,30.34,30.16,10,10,10,13,5,17,0.00,0,,187
2011-11-18,57,47,37,38,30,25,62,47,32,30.14,29.93,29.78,10,10,10,26,14,40,0.00,0,,181
2011-11-19,75,56,37,56,44,29,77,62,38,30.09,29.79,29.68,10,10,10,28,17,40,0.00,5,,219
2011-11-20,37,36,35,34,31,27,93,80,70,30.25,30.19,30.09,10,8,4,13,8,17,0.05,8,Rain,25
2011-11-21,42,39,36,39,36,33,93,87,79,30.26,30.13,29.98,10,8,3,9,5,18,0.27,8,Rain,27
2011-11-22,48,44,39,43,40,37,93,87,80,30.22,30.07,29.96,10,8,4,16,9,,0.02,8,Rain,326
2011-11-23,59,44,30,44,36,28,97,84,55,30.30,30.25,30.21,10,4,0,8,2,,0.00,2,Fog,178
2011-11-24,60,51,42,45,42,39,92,78,53,30.25,30.17,30.06,10,8,4,16,8,21,0.00,0,,180
2011-11-25,60,52,44,54,48,42,94,81,62,30.06,29.93,29.83,10,8,5,24,15,32,0.00,7,Rain,184
2011-11-26,57,48,37,55,42,24,94,78,55,30.21,29.91,29.74,10,9,4,29,14,43,0.38,7,Rain,341
2011-11-27,42,34,24,25,23,20,85,65,49,30.30,30.25,30.21,10,10,10,17,12,25,0.00,2,,344
2011-11-28,46,32,19,29,23,16,88,75,50,30.21,30.14,30.06,10,10,10,6,2,,0.00,0,,359
2011-11-29,50,38,25,33,25,19,85,64,35,30.28,30.22,30.09,10,10,2,18,8,29,0.00,0,,346
2011-11-30,52,36,19,24,19,15,89,54,23,30.27,30.15,30.05,10,10,10,10,3,,0.00,0,,171